Time,TemperatureF,DewpointF,PressureIn,WindDirection,WindDirectionDegrees,WindSpeedMPH,WindSpeedGustMPH,Humidity,HourlyPrecipIn,Conditions,Clouds,dailyrainin,SoftwareType,DateUTC
2013-03-26 00:04:00,58.1,35.7,29.65,South,182,0.0,5.4,43,0.00, ,SKC,-99.99,VWS V12.07,2013-03-25 22:04:00,
2013-03-26 00:10:00,58.1,35.7,29.65,South,185,0.0,5.4,43,0.00, ,SKC,-99.99,VWS V12.07,2013-03-25 22:10:00,
2013-03-26 18:00:00,61.9,24.7,29.59,SW,226,4.9,5.8,24,0.00, ,SKC,-99.99,VWS V12.07,2013-03-26 16:00:00,
2013-03-26 22:10:00,57.6,24.7,29.68,WSW,243,5.4,6.3,28,0.00, ,SKC,-99.99,VWS V12.07,2013-03-26 20:10:00,
2013-03-26 22:12:00,57.6,24.7,29.68,WSW,250,5.8,10.1,28,0.00, ,SKC,-99.99,VWS V12.07,2013-03-26 20:12:00,
2013-03-26 22:14:00,57.4,25.4,29.68,WSW,246,5.4,10.1,29,0.00, ,SKC,-99.99,VWS V12.07,2013-03-26 20:14:00,
2013-03-26 22:19:00,57.4,25.4,29.68,WSW,243,3.1,10.1,29,0.00, ,SKC,-99.99,VWS V12.07,2013-03-26 20:19:00,
2013-03-26 22:24:00,57.2,25.2,29.68,SW,229,2.7,8.1,29,0.00, ,SKC,-99.99,VWS V12.07,2013-03-26 20:24:00,
2013-03-26 22:29:00,57.2,25.2,29.68,SW,224,5.4,9.6,29,0.00, ,SKC,-99.99,VWS V12.07,2013-03-26 20:29:00,
2013-03-26 22:34:00,57.2,25.2,29.68,WSW,238,6.7,11.4,29,0.00, ,SKC,-99.99,VWS V12.07,2013-03-26 20:34:00,
2013-03-26 22:39:00,57.2,26.1,29.68,WSW,247,7.6,11.4,30,0.00, ,SKC,-99.99,VWS V12.07,2013-03-26 20:39:00,
2013-03-26 22:44:00,57.2,26.9,29.68,SW,232,3.6,8.3,31,0.00, ,SKC,-99.99,VWS V12.07,2013-03-26 20:44:00,
2013-03-26 22:49:00,57.2,26.9,29.68,WSW,256,7.6,8.3,31,0.00, ,SKC,-99.99,VWS V12.07,2013-03-26 20:49:00,
2013-03-26 22:54:00,57.0,25.1,29.68,SW,223,4.5,8.3,29,0.00, ,SKC,-99.99,VWS V12.07,2013-03-26 20:54:00,
2013-03-26 22:59:00,57.0,25.1,29.68,SW,226,5.4,8.3,29,0.00, ,SKC,-99.99,VWS V12.07,2013-03-26 20:59:00,
2013-03-26 23:04:00,56.8,25.8,29.68,SW,233,3.6,6.3,30,0.00, ,SKC,-99.99,VWS V12.07,2013-03-26 21:04:00,
2013-03-26 23:09:00,56.8,25.8,29.68,SW,214,5.8,8.3,30,0.00, ,SKC,-99.99,VWS V12.07,2013-03-26 21:09:00,
2013-03-26 23:14:00,56.8,26.5,29.68,WSW,249,6.3,8.3,31,0.00, ,SKC,-99.99,VWS V12.07,2013-03-26 21:14:00,
2013-03-26 23:19:00,56.7,25.6,29.68,WSW,237,3.1,8.3,30,0.00, ,SKC,-99.99,VWS V12.07,2013-03-26 21:19:00,
2013-03-26 23:24:00,56.8,25.8,29.68,WSW,248,3.1,9.6,30,0.00, ,SKC,-99.99,VWS V12.07,2013-03-26 21:24:00,
2013-03-26 23:29:00,56.7,25.6,29.68,SSW,207,4.9,9.6,30,0.00, ,SKC,-99.99,VWS V12.07,2013-03-26 21:29:00,
2013-03-26 23:34:00,56.7,26.4,29.68,SW,229,0.0,9.6,31,0.00, ,SKC,-99.99,VWS V12.07,2013-03-26 21:34:00,
2013-03-26 23:39:00,56.5,26.2,29.68,SW,225,4.0,9.6,31,0.00, ,SKC,-99.99,VWS V12.07,2013-03-26 21:39:00,
2013-03-26 23:44:00,56.5,25.4,29.68,WSW,243,4.9,7.2,30,0.00, ,SKC,-99.99,VWS V12.07,2013-03-26 21:44:00,
2013-03-26 23:50:00,56.5,25.4,29.71,SW,227,4.0,7.6,30,0.00, ,SKC,-99.99,VWS V12.07,2013-03-26 21:50:00,
2013-03-26 23:55:00,56.5,25.4,29.71,SW,233,2.7,7.6,30,0.00, ,SKC,-99.99,VWS V12.07,2013-03-26 21:55:00,